Weather History for KRMG - March, 2013

Change the Weather History Date:

Sunday, March 17, 2013

  Actual Average Record
Temperature  
Mean Temperature 60 °F 52 °F  
Max Temperature 71 °F 65 °F 82 °F (2012)
Min Temperature 48 °F 40 °F 28 °F (1997)
Degree Days  
Heating Degree Days 6 13  
Month to date heating degree days 255  
Since 1 July heating degree days 2877  
Cooling Degree Days 0 0  
Month to date cooling degree days 0  
Year to date cooling degree days 0  
Growing Degree Days 10 (Base 50)    
Moisture  
Dew Point 49 °F    
Average Humidity 69    
Maximum Humidity 89    
Minimum Humidity 46    
Precipitation  
Precipitation 0.00 in 0.15 in 0.74 in (2003)
Month to date precipitation 2.87  
Year to date precipitation 12.56  
Sea Level Pressure  
Sea Level Pressure 29.93 in    
Wind  
Wind Speed 3 mph (SW)    
Max Wind Speed 12 mph    
Max Gust Speed 17 mph    
Visibility 10 miles    
Events      
T = Trace of Precipitation, MM = Missing Value Source: NWS Daily Summary

Daily Weather History Graph

Daily Weather History Graph

Search for Another Location

Airport or City:

Trip Planner

Search our weather history database for the weather conditions in past years. The results will help you decide how hot, cold, wet, or windy it might be!

Date:

Astronomy

Mar. 17, 2013 Rise Set
Actual Time 7:48 AM EDT 7:50 PM EDT
Civil Twilight 7:23 AM EDT 8:15 PM EDT
Nautical Twilight 6:53 AM EDT 8:44 PM EDT
Astronomical Twilight 6:24 AM EDT 9:13 PM EDT
Moon 11:14 AM EDT (3/17) 12:43 AM EDT (3/17)
Length of Visible Light 12h 52m
Length of Day
12h 02m
Waxing Crescent, 31% of the Moon is Illuminated
Mar 17
Waxing Crescent
Mar 19
First Quarter
Mar 27
Full
Apr 3
Last Quarter
Apr 10
New

Hourly Weather History & Observations

Time (EDT) Temp. Dew Point Humidity Pressure Visibility Wind Dir Wind Speed Gust Speed Precip Events Conditions
12:53 AM 52.0 °F 45.0 °F 77% 29.94 in 10.0 mi SW 3.5 mph - N/A   Clear
1:53 AM 50.0 °F 44.1 °F 80% 29.93 in 10.0 mi Calm Calm - N/A   Clear
2:53 AM 50.0 °F 44.1 °F 80% 29.94 in 10.0 mi Calm Calm - N/A   Clear
3:53 AM 48.9 °F 44.1 °F 83% 29.93 in 10.0 mi Calm Calm - N/A   Clear
4:53 AM 50.0 °F 44.1 °F 80% 29.92 in 10.0 mi Calm Calm - N/A   Clear
5:53 AM 50.0 °F 45.0 °F 83% 29.94 in 10.0 mi Calm Calm - N/A   Clear
6:53 AM 51.1 °F 46.9 °F 86% 29.94 in 10.0 mi Calm Calm - N/A   Clear
7:53 AM 53.1 °F 48.9 °F 86% 29.96 in 10.0 mi SW 4.6 mph - N/A   Clear
8:53 AM 55.0 °F 51.1 °F 86% 29.97 in 7.0 mi West 3.5 mph - N/A   Clear
9:53 AM 60.1 °F 52.0 °F 75% 29.98 in 6.0 mi Variable 5.8 mph - N/A   Haze
10:53 AM 63.0 °F 53.1 °F 70% 29.98 in 6.0 mi SSW 9.2 mph - N/A   Haze
11:53 AM 66.0 °F 53.1 °F 63% 29.98 in 10.0 mi SW 6.9 mph - N/A   Mostly Cloudy
12:53 PM 68.0 °F 53.1 °F 59% 29.96 in 10.0 mi SW 9.2 mph - N/A   Partly Cloudy
1:53 PM 68.0 °F 52.0 °F 56% 29.94 in 10.0 mi SSW 11.5 mph 17.3 mph N/A   Clear
2:53 PM 68.0 °F 51.1 °F 55% 29.92 in 10.0 mi West 9.2 mph - N/A   Mostly Cloudy
3:53 PM 69.1 °F 48.9 °F 49% 29.89 in 10.0 mi WSW 5.8 mph - N/A   Clear
4:53 PM 69.1 °F 48.0 °F 47% 29.89 in 10.0 mi WSW 6.9 mph - N/A   Clear
5:53 PM 69.1 °F 48.0 °F 47% 29.88 in 10.0 mi Variable 5.8 mph - N/A   Clear
6:53 PM 68.0 °F 48.9 °F 50% 29.87 in 10.0 mi Calm Calm - N/A   Clear
7:53 PM 63.0 °F 50.0 °F 63% 29.88 in 10.0 mi Calm Calm - N/A   Clear
8:53 PM 61.0 °F 50.0 °F 67% 29.89 in 10.0 mi South 3.5 mph - N/A   Partly Cloudy
9:53 PM 60.1 °F 50.0 °F 69% 29.90 in 10.0 mi Calm Calm - N/A   Clear
10:53 PM 55.0 °F 48.9 °F 80% 29.91 in 10.0 mi North 3.5 mph - N/A   Clear
11:53 PM 53.1 °F 50.0 °F 89% 29.91 in 10.0 mi Calm Calm - N/A   Clear